W2GR Weather Reports


time (UTC)temp
F
wind
direction
speed
knots
gust
knots
rain 1hr
in
rain 24hr
in
rain mn
in
humidity
%
barometer
mb
20260504001551 54 215 5.2 13.0 0.00 0.00 0.00 52 1007.5
20260504000121 54 285 4.3 8.7 0.00 0.00 0.00 52 1007.6
20260503234553 54 207 2.6 11.3 0.00 0.00 0.00 54 1007.8
20260503233044 53 202 2.6 6.1 0.00 0.00 0.00 59 1008.0
20260503231541 53 256 0.9 5.2 0.00 0.00 0.00 61 1008.1
20260503230039 53 272 1.7 6.1 0.00 0.00 0.00 63 1008.1
20260503224538 52 250 1.7 3.5 0.00 0.00 0.00 67 1008.2
20260503223039 52 257 1.7 4.3 0.00 0.00 0.00 66 1008.4
20260503221541 53 245 2.6 8.7 0.00 0.00 0.00 66 1008.4
20260503220028 53 229 2.6 7.8 0.00 0.00 0.00 63 1008.4
20260503214526 53 266 3.5 11.3 0.00 0.00 0.00 61 1008.2
20260503213021 53 216 4.3 12.2 0.00 0.00 0.00 61 1007.8
20260503211516 53 212 6.1 12.2 0.00 0.00 0.00 60 1007.7
20260503210010 52 240 4.3 17.4 0.00 0.00 0.00 60 1007.7
20260503204508 51 268 4.3 11.3 0.00 0.00 0.00 61 1007.8
20260503203018 52 226 5.2 9.6 0.00 0.00 0.00 60 1008.0
20260503201503 52 257 5.2 13.9 0.00 0.00 0.00 59 1008.2
20260503200002 53 257 4.3 12.2 0.00 0.00 0.00 57 1008.4
20260503194600 53 245 4.3 14.8 0.00 0.00 0.00 58 1008.6
20260503193057 53 224 4.3 12.2 0.00 0.00 0.00 57 1008.9
20260503191552 54 204 5.2 15.6 0.00 0.00 0.00 54 1009.1
20260503190049 54 246 6.1 12.2 0.00 0.00 0.00 55 1009.3
20260503184545 53 212 6.1 16.5 0.00 0.00 0.00 53 1009.6
20260503183045 52 237 7.8 14.8 0.00 0.00 0.00 53 1009.8
20260503181539 52 246 5.2 12.2 0.00 0.00 0.00 50 1010.0
20260503180040 52 226 8.7 23.5 0.00 0.00 0.00 45 1010.3
20260503174535 52 214 11.3 17.4 0.00 0.00 0.00 48 1010.4
20260503173047 52 203 6.1 17.4 0.00 0.00 0.00 54 1010.7
20260503171534 51 229 5.2 13.0 0.00 0.00 0.00 60 1011.0
20260503081535 0 0.0 0.0 0.00 0.00 0.00 1013.2
20260503071514 0 0.0 0.0 0.00 0.00 0.00 1013.1
20260503060104 0 0.0 0.0 0.00 0.00 0.00 1013.4
20260503054546 0 0.0 0.0 0.00 0.00 0.00 1013.4
20260503053042 0 0.0 0.0 0.00 0.00 0.00 1013.5
20260503051535 0 0.0 0.0 0.00 0.00 0.00 1013.6
20260503050002 0 0.0 0.0 0.00 0.00 0.00 1013.7
20260503044606 0 0.0 0.0 0.00 0.00 0.00 1013.7
20260503043056 0 0.0 0.0 0.00 0.00 0.00 1013.7
20260503041546 37 212 0.0 0.9 0.00 0.00 0.00 79 1014.0
20260503040041 38 207 0.0 1.7 0.00 0.00 0.00 79 1014.0
20260503034540 38 212 0.0 1.7 0.00 0.00 0.00 80 1014.0
20260503033051 39 217 0.9 2.6 0.00 0.00 0.00 80 1014.1
20260503031536 39 210 0.9 2.6 0.00 0.00 0.00 79 1014.1
20260503030030 40 225 0.9 2.6 0.00 0.00 0.00 77 1014.1
20260503024529 40 224 0.9 2.6 0.00 0.00 0.00 76 1014.2
20260503023041 40 212 0.9 2.6 0.00 0.00 0.00 74 1014.3
20260503021524 40 212 0.0 3.5 0.00 0.00 0.00 72 1014.4
20260503020023 41 198 0.9 2.6 0.00 0.00 0.00 70 1014.5
20260503014521 41 211 0.0 2.6 0.00 0.00 0.00 70 1014.4
20260503013018 41 223 0.9 2.6 0.00 0.00 0.00 69 1014.5
20260503011516 41 234 1.7 3.5 0.00 0.00 0.00 69 1014.4
20260503010021 41 236 0.9 1.7 0.00 0.00 0.00 67 1014.4
20260503004512 41 244 0.0 3.5 0.00 0.00 0.00 66 1014.3
20260503003011 41 231 0.9 3.5 0.00 0.00 0.00 72 1014.3